Weather History for South Bend, IN

Change the Weather History Date:

Saturday, July 13, 2013

  Actual Average Record
Temperature  
Mean Temperature 71 °F 73 °F  
Max Temperature 85 °F 83 °F 106 °F (1936)
Min Temperature 57 °F 63 °F 49 °F (1940)
Degree Days  
Heating Degree Days 0 0  
Month to date heating degree days 3 0  
Since 1 June heating degree days 40 44  
Since 1 July heating degree days 3 0  
Cooling Degree Days 6 8  
Month to date cooling degree days 81 104  
Year to date cooling degree days 342 325  
Since 1 June cooling degree days 246 269  
Growing Degree Days 20 (Base 50)    
Moisture  
Dew Point 60 °F    
Average Humidity 64    
Maximum Humidity 90    
Minimum Humidity 40    
Precipitation  
Precipitation 0.00 in 0.13 in 2.94 in (1945)
Month to date precipitation 1.43 1.61  
Year to date precipitation 22.16 19.12  
Snow  
Snow 0.00 in - - ()
Month to date snowfall 0.0  
Since 1 June snowfall 0.0  
Snow Depth 0.00 in    
Sea Level Pressure  
Sea Level Pressure 30.15 in    
Wind  
Wind Speed 5 mph (East)    
Max Wind Speed 15 mph    
Max Gust Speed 23 mph    
Visibility 10 miles    
Events      
T = Trace of Precipitation, MM = Missing Value Source: NWS Daily Summary

Daily Weather History Graph

Daily Weather History Graph

Search for Another Location

Airport:

Trip Planner

Search our weather history database for the weather conditions in past years. The results will help you decide how hot, cold, wet, or windy it might be!

Date:

Astronomy

Jul. 13, 2013 Rise Set
Actual Time 6:22 AM EDT 9:19 PM EDT
Civil Twilight 5:49 AM EDT 9:52 PM EDT
Nautical Twilight 5:07 AM EDT 10:34 PM EDT
Astronomical Twilight 4:17 AM EDT 11:23 PM EDT
Moon 11:43 AM EDT (7/13) 11:53 PM EDT (7/13)
Length of Visible Light 16h 03m
Length of Day
14h 56m
Waxing Crescent, 25% of the Moon is Illuminated
Jul 13
Waxing Crescent
Jul 15
First Quarter
Jul 22
Full
Jul 29
Last Quarter
Aug 6
New

Hourly Weather History & Observations

Time (EDT) Temp. Heat Index Dew Point Humidity Pressure Visibility Wind Dir Wind Speed Gust Speed Precip Events Conditions
12:54 AM 62.1 °F - 55.9 °F 80% 30.13 in 10.0 mi Calm Calm - N/A   Clear
1:54 AM 61.0 °F - 55.9 °F 83% 30.13 in 10.0 mi NNE 3.5 mph - N/A   Clear
2:54 AM 60.1 °F - 55.9 °F 86% 30.14 in 10.0 mi Calm Calm - N/A   Clear
3:54 AM 60.1 °F - 55.9 °F 86% 30.14 in 10.0 mi North 3.5 mph - N/A   Clear
4:54 AM 60.1 °F - 55.9 °F 86% 30.16 in 10.0 mi Calm Calm - N/A   Clear
5:54 AM 61.0 °F - 57.0 °F 87% 30.15 in 10.0 mi Calm Calm - N/A   Clear
6:54 AM 57.9 °F - 55.0 °F 90% 30.17 in 10.0 mi NNE 3.5 mph - N/A   Clear
7:54 AM 64.9 °F - 57.9 °F 78% 30.15 in 10.0 mi East 3.5 mph - N/A   Clear
8:54 AM 70.0 °F - 60.1 °F 71% 30.17 in 10.0 mi East 5.8 mph - N/A   Clear
9:54 AM 73.0 °F - 61.0 °F 66% 30.17 in 10.0 mi East 5.8 mph - N/A   Clear
10:54 AM 77.0 °F - 59.0 °F 54% 30.17 in 10.0 mi Variable 3.5 mph - N/A   Clear
11:54 AM 79.0 °F - 59.0 °F 50% 30.16 in 10.0 mi ESE 4.6 mph - N/A   Clear
12:54 PM 80.1 °F 80.9 °F 60.1 °F 50% 30.17 in 10.0 mi East 11.5 mph - N/A   Clear
1:54 PM 81.0 °F 81.9 °F 62.1 °F 52% 30.17 in 10.0 mi SSE 8.1 mph - N/A   Mostly Cloudy
2:54 PM 82.9 °F 83.7 °F 62.1 °F 49% 30.15 in 10.0 mi ESE 11.5 mph 16.1 mph N/A   Scattered Clouds
3:54 PM 82.0 °F 83.0 °F 62.1 °F 51% 30.14 in 10.0 mi ESE 9.2 mph - N/A   Mostly Cloudy
4:54 PM 82.9 °F 83.7 °F 62.1 °F 49% 30.14 in 10.0 mi SE 10.4 mph - N/A   Scattered Clouds
5:54 PM 82.9 °F 83.7 °F 62.1 °F 49% 30.14 in 10.0 mi ESE 8.1 mph - N/A   Scattered Clouds
6:54 PM 82.0 °F 83.0 °F 62.1 °F 51% 30.13 in 10.0 mi East 4.6 mph - N/A   Partly Cloudy
7:54 PM 81.0 °F 81.7 °F 61.0 °F 50% 30.13 in 10.0 mi SE 9.2 mph - N/A   Clear
8:54 PM 80.1 °F 81.1 °F 61.0 °F 52% 30.14 in 10.0 mi ESE 8.1 mph - N/A   Clear
9:54 PM 75.9 °F - 62.1 °F 62% 30.15 in 10.0 mi Calm Calm - N/A   Clear
10:54 PM 73.9 °F - 63.0 °F 68% 30.17 in 10.0 mi ENE 3.5 mph - N/A   Scattered Clouds
11:54 PM 73.9 °F - 63.0 °F 68% 30.18 in 10.0 mi East 4.6 mph - N/A   Overcast